GEFSSE_con_prob3kmehi_174.txt.gz
EHI
17 18 17 11 7 6 5 5 3 1 0 0 0 0 0 0 0 0 0 0 0 0 0 0 0 0 0 0 0 0 0 0 0 1 2 4 5 3 2 1 1 2 3
22 21 19 13 8 7 6 4 2 1 0 1 1 0 0 0 0 0 0 0 0 0 0 0 0 0 0 0 0 0 0 0 0 0 1 2 2 2 1 1 2 3 4
25 22 19 14 10 8 7 6 4 2 1 2 2 1 0 0 0 0 0 0 0 0 0 0 0 0 0 0 0 0 0 0 0 0 0 0 1 3 2 1 2 3 3
23 21 18 15 11 9 9 9 8 5 4 5 4 2 1 0 0 0 0 0 0 0 0 0 0 0 0 0 0 0 0 0 0 0 0 1 4 7 5 2 2 2 2
23 22 20 16 12 10 10 10 9 8 7 7 6 4 2 1 1 1 0 0 0 0 0 0 0 0 0 0 0 0 0 0 1 2 1 3 8 11 8 4 3 3 2
21 21 21 19 15 12 11 10 9 9 9 9 8 5 3 2 2 1 0 0 0 0 0 0 0 0 0 0 0 0 0 1 2 3 1 5 12 14 10 6 4 3 1
19 18 20 22 19 15 11 10 11 10 9 9 8 5 2 2 1 1 0 0 1 0 0 0 0 0 0 0 0 0 0 1 2 1 2 7 15 19 14 7 4 2 1
22 20 19 21 21 17 12 9 11 10 8 7 6 4 3 3 3 1 1 1 1 0 0 0 0 0 0 0 0 0 0 1 1 0 2 10 22 27 21 11 6 3 2
27 23 17 15 15 13 10 8 9 9 8 6 5 4 4 5 4 3 2 2 2 1 0 0 0 1 1 0 0 0 1 1 0 0 3 14 29 34 27 18 10 5 4
27 24 17 11 9 6 6 7 7 7 7 7 5 4 3 3 3 3 3 4 4 2 1 0 1 2 2 2 2 2 1 1 1 1 5 19 34 37 30 21 12 6 5
27 24 20 16 11 5 5 7 8 7 8 9 7 5 3 2 2 3 7 10 8 4 2 1 2 3 3 3 4 4 2 1 2 4 11 25 33 32 26 20 12 6 5
28 25 24 23 17 11 11 14 12 11 13 12 8 8 8 6 4 8 16 18 12 6 4 3 4 4 3 3 5 5 2 1 1 6 17 29 29 23 18 16 11 6 5
28 27 26 27 25 21 21 21 17 17 19 16 13 16 17 14 12 16 24 23 15 9 6 5 5 3 2 2 5 4 2 1 2 7 20 28 24 17 14 12 9 7 7
32 30 30 32 34 34 33 27 22 22 22 21 22 24 23 21 19 21 25 25 19 15 11 9 6 4 2 2 4 3 2 2 4 11 20 23 20 15 13 10 8 7 7
39 38 37 38 42 44 40 32 26 26 26 26 29 29 25 23 22 23 25 24 22 21 17 11 9 6 5 4 3 3 4 6 9 13 18 20 19 16 11 7 6 5 4
47 45 42 41 42 44 41 32 28 29 30 30 32 33 29 25 25 26 26 24 22 21 19 14 11 9 7 5 5 5 7 8 10 12 14 15 15 13 9 6 5 4 4
52 49 43 38 38 39 37 32 28 28 28 30 34 35 31 26 25 26 26 25 23 21 20 16 13 9 6 5 6 8 9 9 8 10 12 12 12 11 10 8 6 5 4
53 50 43 36 35 36 35 33 29 27 26 29 33 33 29 24 23 23 23 24 24 22 18 15 13 9 6 6 8 9 10 8 8 9 10 10 11 12 12 9 7 4 2
52 49 43 39 37 36 34 32 29 26 26 27 28 28 25 21 20 21 21 22 21 20 17 13 12 11 8 8 7 8 8 7 7 7 8 9 11 13 11 8 5 4 3
48 46 43 42 40 38 35 30 25 22 21 21 23 24 23 19 18 19 20 19 17 17 15 11 11 11 9 6 5 5 5 6 6 6 7 7 8 10 9 7 5 3 2
43 43 42 41 40 38 35 29 22 17 16 16 18 21 20 18 17 18 19 19 17 14 12 10 9 10 8 5 3 3 2 4 7 7 7 6 7 7 7 6 4 2 1
40 39 38 38 38 35 32 27 21 16 14 13 15 18 18 17 16 17 18 18 17 14 11 9 8 8 6 4 3 2 1 3 6 7 6 6 5 4 4 3 2 1 1
39 37 34 35 34 31 27 23 19 16 14 13 15 16 17 16 16 17 17 17 15 15 13 9 7 6 5 3 3 3 2 2 3 5 6 5 3 2 1 1 0 0 1
38 35 32 31 30 27 24 21 18 16 15 15 17 17 17 16 16 15 15 14 14 13 12 9 7 6 4 3 3 4 3 2 2 3 5 4 1 0 1 1 1 1 1
37 34 30 30 28 25 21 19 17 15 14 15 16 17 17 15 14 13 11 11 10 10 9 8 8 6 3 2 3 3 3 3 2 2 2 2 0 0 1 2 2 1 1
35 33 30 31 29 24 18 17 16 15 14 14 15 16 15 14 13 11 8 8 8 8 8 8 8 6 2 1 3 3 3 4 3 2 1 0 0 0 1 1 1 1 0

GEFSSE_con_prob3kmehi_180.txt.gz
EHI
1 6 17 22 22 20 17 13 8 4 4 5 6 6 7 7 7 6 6 6 5 3 2 1 0 0 0 0 0 0 1 2 3 4 5 7 7 6 8 9 5 1 1
7 11 21 27 26 21 17 13 9 5 4 4 4 5 5 4 4 3 3 3 3 2 1 0 0 0 0 0 0 0 0 1 1 2 2 3 3 4 7 8 4 2 3
19 19 26 33 32 24 17 13 11 7 5 4 4 3 2 1 1 0 0 1 1 1 0 0 0 0 0 0 0 1 1 0 0 0 0 0 0 2 5 6 4 4 5
26 24 28 37 38 29 19 13 11 10 7 6 4 2 0 0 0 0 0 0 0 0 0 0 0 0 0 0 1 3 3 2 0 0 0 0 0 3 6 6 4 4 4
26 24 28 37 39 32 21 13 11 10 8 6 4 1 0 0 0 0 0 0 0 0 0 0 0 0 0 1 2 4 5 3 1 0 0 0 1 4 7 7 6 4 4
24 22 27 36 37 32 23 15 12 10 8 6 4 2 1 1 1 0 0 0 0 0 0 0 0 0 0 1 2 3 4 3 1 0 0 0 2 5 8 8 7 6 5
25 23 26 32 34 31 26 19 14 12 10 8 7 5 4 3 2 1 1 1 0 0 0 0 0 0 0 0 1 1 1 1 0 0 0 0 2 6 10 11 9 8 6
28 26 24 26 29 30 27 22 18 15 13 10 9 8 7 5 3 2 2 1 0 0 0 0 0 0 0 0 0 0 0 0 0 0 0 0 2 6 11 13 10 7 5
26 26 23 21 22 24 24 21 20 19 14 10 8 8 7 5 3 2 2 1 0 0 0 0 0 0 0 0 0 0 0 0 1 0 0 0 1 4 8 10 7 4 3
17 20 21 19 17 17 17 18 20 18 13 9 6 5 5 4 3 2 2 1 1 1 1 1 1 1 0 0 0 0 0 0 0 0 0 1 2 6 9 9 6 4 4
12 13 14 14 13 11 11 13 14 12 9 6 4 3 3 3 3 2 1 0 1 1 2 3 3 2 0 0 0 0 1 0 0 0 0 2 5 9 11 10 8 7 6
14 10 7 7 8 8 8 8 8 7 5 4 3 3 3 3 2 1 0 0 0 2 3 3 3 2 1 0 0 0 0 0 0 0 1 3 6 9 10 11 10 9 8
16 11 6 5 4 4 5 6 5 4 2 2 2 3 2 1 1 0 0 0 0 2 3 3 2 2 1 0 0 0 0 0 0 0 2 4 6 8 10 11 10 9 8
19 15 11 9 5 4 4 5 4 3 2 1 1 1 2 1 1 1 0 0 1 2 2 1 1 1 0 0 0 0 0 0 0 1 3 5 7 9 11 12 10 8 7
26 21 17 14 10 7 7 7 7 5 4 2 2 2 3 3 3 2 1 1 1 2 1 0 0 0 0 0 0 0 0 0 0 1 2 4 6 7 10 11 9 7 6
31 29 24 19 15 13 11 11 10 8 6 5 4 4 5 4 4 3 3 2 2 1 0 0 0 0 0 0 0 0 0 0 0 0 1 2 4 5 7 8 8 6 5
34 35 32 26 21 18 15 12 10 8 6 5 4 4 4 4 4 3 3 3 1 0 0 0 0 0 0 0 0 0 0 0 0 0 0 1 3 4 5 6 6 5 4
36 37 36 30 25 22 18 13 10 7 5 4 3 3 4 5 4 3 3 2 1 0 0 0 0 0 0 0 0 0 0 0 0 0 0 1 2 3 4 4 4 4 3
36 36 34 31 28 23 17 14 12 9 6 4 3 3 4 5 5 4 3 2 1 0 0 0 0 0 0 0 0 0 0 0 0 0 0 1 2 3 2 2 2 3 2
34 35 33 31 27 21 15 13 12 10 8 6 4 4 4 5 6 5 4 2 0 0 0 0 0 0 0 0 0 0 0 0 0 0 0 1 2 2 1 0 1 2 1
33 33 31 28 24 18 13 11 10 9 7 5 4 4 4 5 6 6 5 2 0 0 0 0 0 0 0 0 0 0 0 0 0 0 0 1 1 1 1 0 0 0 0
30 29 27 23 18 14 11 9 8 7 5 4 4 4 5 6 7 6 4 1 0 0 0 0 0 0 0 0 0 0 0 0 0 0 0 0 0 0 0 0 0 0 0
29 26 23 18 13 10 7 7 6 5 3 3 3 4 4 4 5 5 3 1 0 0 0 0 0 0 0 0 0 0 0 0 0 0 0 0 0 0 0 0 0 0 0
26 23 18 13 9 6 5 4 5 4 3 2 2 2 2 2 2 2 2 1 0 0 0 0 0 0 0 0 0 0 0 0 0 0 0 0 0 0 0 0 0 0 0
21 20 16 10 7 5 4 4 4 3 3 2 1 0 0 0 0 0 1 0 0 0 0 0 0 0 0 0 0 0 0 0 0 0 0 0 0 0 0 0 0 0 0
19 19 16 10 7 6 5 4 3 3 3 2 1 0 0 0 0 1 1 1 0 0 0 0 0 0 0 0 0 0 0 0 0 0 0 0 0 0 0 0 0 0 0

GEFSSE_con_prob3kmehi_186.txt.gz
EHI
1 3 8 12 18 27 33 33 32 35 39 41 41 43 44 41 33 24 14 7 4 2 1 0 0 0 0 0 0 0 0 0 0 1 0 0 1 1 1 0 0 0 0
5 6 10 16 22 28 32 31 30 31 32 33 33 34 35 33 27 18 10 5 3 3 1 1 1 0 0 0 0 0 0 1 1 1 0 0 0 1 2 1 0 0 0
14 10 12 21 27 30 31 29 26 25 24 23 23 23 24 22 16 11 7 4 3 2 2 2 1 0 0 0 0 0 0 1 2 1 0 0 0 1 3 2 1 0 0
17 12 14 24 30 30 29 25 21 20 18 17 16 16 17 15 10 7 5 3 1 1 1 1 1 0 0 0 0 0 0 1 1 1 0 0 0 1 3 3 2 1 0
15 10 14 27 31 29 26 21 18 17 16 13 13 14 15 13 10 6 4 1 0 0 0 0 0 0 0 0 0 0 0 0 0 0 0 0 0 1 2 3 2 1 0
12 10 17 30 34 30 27 22 19 17 15 13 13 15 15 13 10 7 4 1 0 0 0 0 0 0 0 0 0 0 0 0 0 0 0 0 0 0 2 3 2 0 0
15 15 21 32 35 33 30 25 22 20 17 15 15 15 14 12 9 7 4 1 0 0 0 0 0 0 0 0 0 0 0 0 0 0 0 0 1 1 1 2 1 1 1
20 20 24 29 32 32 31 27 24 24 22 20 17 15 13 11 8 6 3 1 0 1 1 0 0 0 0 0 0 0 0 0 0 0 0 0 1 1 1 1 1 1 2
23 23 23 24 25 28 29 28 27 27 26 23 19 14 11 10 8 6 3 1 0 1 1 0 0 0 0 0 0 0 0 0 0 0 0 0 1 1 1 1 1 1 1
22 23 23 21 21 22 24 26 27 26 24 20 16 12 8 7 7 5 3 1 0 1 1 0 0 0 0 0 0 0 0 0 0 0 0 0 1 1 1 1 1 2 1
18 19 21 21 19 18 19 21 20 19 16 12 10 9 6 5 4 3 2 2 1 0 0 0 0 0 0 0 0 0 0 0 0 0 0 0 1 2 2 2 3 4 4
14 16 18 19 17 15 15 15 13 11 9 7 6 6 5 3 1 1 1 1 1 0 0 0 0 0 0 0 0 0 0 0 0 0 0 0 1 1 1 2 3 5 5
13 13 14 14 12 10 9 9 9 9 7 6 4 3 3 1 0 0 0 0 0 0 0 0 0 0 0 0 0 0 0 0 0 0 0 0 1 1 1 1 2 3 3
12 12 10 9 8 6 5 5 6 7 6 5 3 2 1 0 0 0 0 0 0 0 0 0 0 0 0 1 1 1 0 0 0 0 0 0 0 0 1 1 2 2 2
10 10 9 7 6 5 4 4 5 5 4 3 1 1 0 0 0 0 0 0 0 0 0 0 0 0 0 1 2 1 1 0 0 0 0 0 0 0 1 1 2 2 3
9 9 9 7 6 6 6 5 4 3 2 1 0 0 0 0 0 0 0 0 0 0 0 0 0 0 0 1 2 1 1 1 0 0 0 0 0 1 1 1 1 2 3
9 8 7 8 7 6 5 4 2 1 1 1 0 0 0 0 0 0 0 0 0 0 0 0 0 0 0 1 1 0 0 0 0 0 0 0 0 1 1 1 1 3 4
9 9 8 8 7 5 4 2 0 0 1 1 1 1 2 2 1 0 0 0 0 0 0 0 0 0 0 0 0 0 0 0 0 0 0 0 0 0 1 1 2 4 4
13 12 10 8 7 6 3 1 0 0 1 1 1 2 3 2 1 0 0 0 0 0 0 0 0 0 0 0 0 0 0 0 0 0 0 0 0 0 0 1 2 3 4
18 15 11 9 8 6 3 1 0 0 0 0 0 1 2 2 1 1 0 0 0 0 0 0 0 0 0 0 0 0 0 0 0 0 0 0 0 0 0 0 1 2 3
19 16 12 9 7 5 2 0 0 0 0 0 0 0 0 0 0 0 0 0 0 0 0 0 0 0 0 0 0 0 0 0 0 0 0 0 0 0 0 0 0 1 1
19 15 11 8 4 2 1 0 0 0 0 0 0 0 0 0 0 0 0 0 0 0 0 0 0 0 0 0 0 0 0 0 0 0 0 0 0 0 0 0 0 0 0
19 15 11 6 2 1 0 0 0 0 0 0 0 0 0 0 0 0 0 0 0 0 0 0 0 0 0 0 0 0 0 0 0 0 0 0 0 0 0 0 0 0 0
19 16 10 5 1 0 0 0 0 0 0 0 0 0 0 0 0 0 0 0 0 0 0 0 0 0 0 0 0 0 0 0 0 0 0 0 0 0 0 0 0 0 0
17 14 9 6 3 1 1 1 1 0 0 0 0 0 0 0 0 0 0 0 0 0 0 0 0 0 0 0 0 0 0 0 0 0 0 0 0 0 0 0 0 0 0
12 11 8 6 5 4 3 2 2 1 0 0 0 0 0 0 0 0 0 0 0 0 0 0 0 0 0 0 0 0 0 0 0 0 0 0 0 0 0 0 0 0 0

GEFSSE_con_prob3kmehi_192.txt.gz
EHI
5 11 18 14 8 9 15 25 33 36 38 41 40 37 33 25 18 12 7 3 1 0 0 0 0 0 0 0 0 0 0 0 0 1 0 0 0 0 0 0 0 2 6
8 13 18 14 10 11 18 28 36 40 43 45 44 40 34 27 18 11 6 3 1 0 0 0 0 0 0 0 0 0 0 0 0 1 0 0 0 0 0 0 0 3 5
11 15 17 16 13 13 19 30 39 43 46 47 46 40 32 24 16 9 5 2 0 0 0 0 0 0 0 0 0 0 0 0 0 0 0 0 0 1 1 0 1 2 3
12 16 18 19 16 14 18 28 35 40 42 44 41 34 26 18 12 7 4 2 1 0 0 0 0 0 0 0 0 0 0 0 0 0 0 0 1 2 1 0 0 1 1
13 16 21 21 18 16 17 22 29 33 35 36 33 27 20 15 9 6 4 3 2 1 0 0 0 0 0 0 0 0 0 0 0 0 0 0 1 2 1 0 0 0 0
13 15 21 23 19 17 17 19 23 27 29 29 26 21 17 14 10 5 3 3 2 1 0 0 0 0 0 0 0 0 0 0 0 0 0 0 1 2 1 0 0 0 0
12 14 21 23 19 18 17 17 19 22 24 24 21 17 15 13 9 4 3 3 2 1 0 0 0 0 0 0 0 0 0 0 0 0 0 1 2 2 1 0 0 1 1
12 14 20 21 18 17 18 18 17 18 19 20 18 15 13 11 7 3 2 2 1 0 0 0 0 0 0 0 0 0 0 0 0 0 0 1 2 1 0 0 0 1 2
12 13 15 16 17 18 19 21 21 19 17 15 12 10 8 7 4 2 1 0 0 0 0 0 0 0 0 0 0 0 0 0 0 0 0 2 3 2 0 0 0 1 2
12 13 13 15 17 18 19 21 23 21 16 11 7 5 3 2 1 1 0 0 0 0 0 0 0 0 0 0 0 0 0 0 0 0 1 4 6 3 1 1 1 2 3
17 17 18 19 19 17 17 19 20 18 14 9 6 4 2 0 0 0 1 1 1 0 0 0 0 0 0 0 0 0 0 0 0 0 2 7 7 3 1 2 3 4 4
24 24 24 24 22 19 19 20 20 16 12 10 9 8 8 6 3 2 3 3 2 1 0 0 0 0 0 0 0 0 0 0 0 0 3 7 7 4 2 3 4 5 4
26 26 26 27 26 24 23 22 21 18 15 13 12 14 16 15 11 7 6 6 5 4 2 2 2 1 1 0 0 0 0 1 1 1 3 6 6 4 2 2 3 5 5
25 26 26 26 28 29 27 24 22 20 18 16 15 16 19 20 16 12 10 9 7 7 6 5 5 4 3 2 0 0 0 1 1 2 3 6 6 3 1 0 2 4 6
26 27 27 26 30 33 33 27 24 22 20 17 16 15 16 17 16 14 13 10 9 9 8 8 7 6 5 3 1 0 0 1 1 2 3 6 5 2 0 0 1 3 4
30 29 28 28 31 36 35 30 27 25 22 18 16 16 15 14 14 14 14 13 12 11 9 7 6 6 5 2 0 0 0 1 2 2 3 5 4 1 0 1 1 1 2
33 32 29 27 29 33 32 27 24 22 19 17 18 17 14 13 12 12 14 13 12 10 7 5 5 5 4 2 0 0 1 2 2 2 2 2 2 0 1 2 2 2 1
33 33 31 27 27 29 26 21 18 16 14 15 17 15 12 10 9 11 12 12 10 7 5 3 3 4 4 3 1 0 1 1 1 1 1 1 1 1 3 4 5 3 2
31 32 32 29 26 25 22 19 17 16 14 14 15 13 9 6 5 7 10 10 9 7 5 4 4 4 4 3 2 0 0 1 0 0 0 1 2 4 4 5 6 5 4
32 31 31 29 27 24 22 21 20 17 15 14 13 10 5 2 1 3 7 10 10 9 6 5 6 5 4 2 1 0 0 1 0 0 0 2 4 5 4 4 5 6 6
33 33 33 31 29 28 26 23 21 17 14 12 10 7 3 1 1 3 6 10 12 10 5 4 6 5 3 2 1 1 0 0 0 0 0 2 5 5 3 3 4 5 7
34 34 35 34 31 30 28 25 22 17 13 10 8 6 4 2 2 3 5 8 9 8 4 3 4 3 1 2 3 3 2 1 0 0 0 2 4 5 4 4 3 4 4
33 33 34 34 32 31 29 25 21 16 12 10 8 6 4 3 3 4 4 5 5 5 4 4 4 3 2 2 3 4 3 2 1 0 0 1 2 4 4 3 3 2 2
32 32 32 32 33 32 29 25 19 14 11 10 10 7 4 3 4 4 4 4 4 5 6 6 6 6 5 4 4 4 4 3 1 0 0 0 1 2 2 2 2 2 1
31 30 29 29 30 29 27 24 20 13 10 10 10 7 5 4 4 4 5 5 5 7 8 8 7 7 8 7 6 4 3 2 1 0 0 0 0 0 0 1 1 1 1
30 29 27 27 27 25 24 24 20 13 9 9 9 7 6 5 5 4 4 4 5 7 9 9 7 7 8 8 6 4 3 2 1 1 0 0 0 0 0 0 1 1 1

GEFSSE_con_prob3kmehi_198.txt.gz
EHI
41 41 44 39 25 13 6 2 0 0 1 2 2 1 0 0 0 0 0 0 0 0 0 0 0 0 0 0 0 0 0 0 1 1 1 0 1 3 4 3 2 6 13
42 41 44 39 25 14 7 2 0 0 1 2 2 2 1 0 0 0 0 0 0 0 0 0 0 0 0 0 0 0 0 0 0 0 0 0 1 2 4 5 5 8 11
41 39 40 37 27 17 10 4 1 0 1 1 2 2 1 0 0 0 0 0 0 0 0 0 0 0 0 0 0 0 0 0 0 0 0 0 1 4 5 6 8 8 7
42 39 38 36 29 21 13 6 2 0 0 0 1 1 0 0 0 0 0 0 0 0 0 0 0 0 0 0 0 0 0 0 0 0 0 1 6 11 9 5 6 6 5
46 44 41 38 32 23 15 9 4 1 1 0 0 0 0 0 0 0 0 0 0 0 0 0 0 0 0 0 0 0 0 0 0 0 0 3 14 23 17 7 6 6 5
46 44 43 41 35 25 18 13 8 5 3 1 0 0 0 1 1 1 1 1 2 1 1 0 0 0 0 0 0 0 0 0 0 0 1 5 20 31 24 11 6 6 6
42 43 43 42 39 31 22 17 14 10 6 4 2 2 3 4 4 4 3 3 3 3 2 1 0 0 0 0 0 0 0 0 0 0 2 9 24 34 27 14 8 7 6
43 44 43 41 40 35 28 22 18 14 11 8 6 6 7 9 9 7 4 3 3 3 3 2 1 1 1 0 0 0 0 0 0 0 2 12 30 39 31 18 12 9 7
44 44 41 38 37 35 32 28 25 21 17 14 11 10 11 11 9 7 5 4 4 4 3 3 3 2 2 1 1 1 0 0 0 0 3 14 34 43 34 23 15 10 8
41 40 38 37 35 32 31 32 31 27 24 21 17 15 13 11 9 6 6 7 7 5 4 3 3 3 3 3 3 3 2 1 0 1 6 19 35 42 36 25 16 11 9
40 37 37 38 35 30 29 33 33 30 27 24 21 19 16 13 10 7 8 12 12 9 7 6 5 4 3 4 6 7 4 2 0 2 11 26 37 38 32 26 19 13 11
40 37 37 38 35 30 30 35 34 30 30 26 22 22 20 16 12 9 12 17 16 14 11 9 7 6 5 6 8 10 7 3 1 2 12 28 35 31 28 25 20 15 12
40 38 39 40 38 35 38 41 37 35 35 30 26 26 23 18 15 15 18 21 20 18 15 12 10 9 8 9 9 10 8 4 1 2 12 26 29 26 24 22 18 14 11
41 40 40 43 46 47 48 47 43 40 38 34 32 31 25 21 19 21 24 23 22 21 19 15 14 12 11 11 10 8 7 5 2 3 12 22 24 22 20 17 14 11 9
44 44 43 47 54 57 54 48 45 44 40 37 38 35 29 25 24 26 26 24 23 23 22 20 16 13 13 12 9 7 7 6 4 4 10 18 21 19 16 15 13 10 8
54 53 52 53 59 61 55 46 42 41 39 38 39 37 33 31 30 29 27 25 23 22 23 21 16 13 13 11 8 7 9 9 9 8 10 14 18 17 16 16 14 11 10
64 63 59 57 59 60 54 45 38 35 34 36 37 37 35 33 33 31 27 26 24 23 23 21 17 14 12 9 8 9 10 11 11 11 10 12 14 15 17 18 17 15 13
68 66 61 54 54 57 56 49 40 35 35 36 36 37 36 31 28 27 25 24 24 22 21 18 15 12 10 8 8 9 11 11 9 8 10 11 10 11 13 16 18 17 15
65 64 59 53 52 55 56 52 45 41 40 39 36 36 35 29 23 20 20 20 19 18 16 13 10 9 9 7 7 8 9 8 6 5 8 10 9 8 8 9 13 16 15
59 58 56 54 53 53 53 51 49 47 44 39 35 34 32 27 22 18 17 16 14 14 12 9 7 7 7 6 6 6 7 6 6 6 7 9 8 8 7 7 10 12 11
55 56 57 55 53 52 51 50 50 48 44 38 33 32 30 26 22 18 16 13 11 11 10 8 7 6 5 5 5 6 6 7 6 5 6 7 7 6 6 8 10 9 7
55 56 57 55 52 50 49 48 47 47 43 37 33 32 28 24 20 18 16 12 10 9 8 7 6 5 4 4 5 6 6 7 6 5 5 6 6 4 4 6 7 6 5
51 53 55 55 53 49 47 45 45 43 39 34 33 30 26 21 18 17 14 10 8 8 7 6 6 5 4 5 6 6 7 7 7 6 5 5 5 3 2 3 3 3 3
43 47 51 54 53 49 46 44 42 38 33 30 29 27 23 19 16 15 13 10 9 8 7 6 6 6 6 6 6 7 7 7 7 6 5 4 3 3 3 3 2 1 1
38 41 46 49 50 47 44 41 38 33 29 27 27 24 20 18 15 14 14 13 10 9 8 7 7 7 6 6 6 6 7 7 6 5 4 3 2 1 2 3 2 1 1
37 37 39 45 47 45 41 37 34 29 27 26 26 22 18 17 16 15 15 14 11 8 8 8 7 7 6 6 6 6 6 6 6 4 3 3 2 1 1 2 2 1 0

GEFSSE_con_prob3kmehi_204.txt.gz
EHI
9 22 37 44 46 46 40 29 19 16 16 15 12 11 11 9 6 4 3 2 2 2 1 1 2 1 0 0 0 0 0 1 2 2 1 0 0 2 6 7 6 7 10
19 28 41 48 49 45 38 29 21 17 16 14 11 10 9 8 5 3 2 1 1 1 1 2 3 2 0 0 0 0 0 0 1 1 0 0 1 3 5 7 7 7 8
31 33 41 51 53 46 38 29 21 17 15 12 9 7 7 5 4 3 2 2 3 3 2 2 2 1 0 0 0 0 0 0 0 0 0 1 2 4 7 9 8 6 7
34 33 38 50 54 48 39 30 22 16 13 9 7 5 5 4 4 3 3 4 4 3 2 1 1 0 0 0 0 0 1 0 0 0 0 1 3 5 9 11 9 7 7
33 32 38 48 51 47 40 32 24 17 13 11 8 6 6 5 5 5 5 5 4 3 2 1 0 0 0 0 0 0 0 0 0 0 0 1 3 5 9 12 10 7 7
33 32 38 46 49 46 40 33 26 20 17 14 10 8 8 8 9 8 8 7 5 3 2 1 0 0 0 0 0 0 0 0 0 0 0 0 2 6 11 13 11 7 5
34 33 37 46 49 46 41 35 30 25 21 18 14 12 12 12 12 10 8 7 6 4 2 1 1 1 2 1 1 0 0 0 0 0 0 0 3 8 12 15 14 9 5
37 35 37 43 47 45 42 37 33 30 26 24 20 17 16 15 12 8 6 6 6 5 3 2 2 3 3 3 2 1 0 0 0 0 0 0 3 7 11 14 16 14 10
40 38 37 40 42 41 38 36 34 32 30 27 24 20 19 17 13 8 6 6 7 7 6 4 4 3 3 3 2 1 0 0 0 0 0 0 2 5 9 12 14 14 12
42 39 37 37 36 33 32 32 32 31 29 27 24 22 19 15 12 10 10 9 9 9 9 8 6 4 4 2 1 1 0 0 0 0 0 0 1 4 8 10 12 12 12
40 38 36 36 35 32 28 27 29 27 25 23 21 19 16 12 9 9 11 11 11 11 11 10 8 6 5 3 1 1 1 1 1 1 1 1 1 3 6 9 11 11 12
37 35 34 36 36 33 27 24 23 21 19 17 15 14 13 10 8 8 9 9 9 10 10 9 9 8 8 6 3 2 2 2 2 2 2 1 1 3 5 9 11 11 11
34 33 34 35 34 31 25 22 20 18 15 14 13 12 11 9 8 8 7 6 6 8 9 10 11 11 11 10 6 3 3 3 3 2 3 3 3 5 7 9 11 11 12
34 34 33 32 30 26 23 22 21 19 16 15 13 12 12 12 11 10 8 7 6 7 10 12 12 12 11 10 7 4 3 2 1 1 2 3 5 7 9 9 8 9 11
35 35 33 30 27 24 20 20 21 20 17 15 14 14 15 15 15 14 12 11 9 8 9 10 10 8 7 6 5 3 1 1 0 0 1 3 5 8 9 7 5 5 7
35 34 32 28 26 23 20 19 20 19 16 14 14 15 16 16 16 16 15 13 11 8 6 5 4 3 2 2 1 1 0 0 0 0 0 1 4 7 8 6 3 2 2
35 33 31 28 25 23 22 21 22 21 18 16 16 16 15 14 14 14 14 13 10 6 3 1 0 0 0 0 0 0 0 1 0 0 0 0 2 4 7 7 5 2 2
34 33 33 31 27 25 24 23 23 23 21 19 18 15 13 12 12 12 12 11 8 3 1 0 0 0 0 0 0 0 0 0 0 0 0 1 1 2 3 6 6 5 4
36 36 36 34 32 30 29 27 24 22 22 21 18 15 12 12 12 12 11 9 5 1 0 0 0 0 0 0 0 0 0 0 0 0 0 1 1 0 1 2 4 5 4
37 37 38 35 33 32 32 30 26 23 22 22 20 16 13 12 12 11 9 5 3 1 1 0 0 0 0 0 0 0 0 0 0 0 0 1 1 0 0 0 1 2 1
33 34 36 34 32 32 31 29 26 23 22 21 21 18 14 11 10 8 5 2 1 1 1 0 0 0 0 0 0 0 0 0 0 0 0 0 0 0 0 0 0 0 0
30 31 31 31 31 30 28 27 25 21 19 19 18 16 14 12 9 6 4 1 0 0 0 0 0 0 0 0 0 0 0 0 0 0 0 0 0 0 0 0 0 0 0
28 28 28 28 27 26 25 25 23 18 15 15 13 11 10 10 8 6 4 1 0 0 0 0 0 0 0 0 0 0 0 0 0 0 0 0 0 0 0 0 0 0 0
24 24 25 25 23 22 21 21 19 16 12 10 8 7 7 7 6 5 3 1 0 0 0 0 0 0 0 0 0 0 0 0 0 0 0 0 0 0 0 0 0 0 0
19 20 22 24 22 19 18 16 13 10 8 6 4 4 5 5 4 3 2 1 0 0 0 0 0 0 0 0 0 0 0 0 0 0 0 0 0 0 0 0 0 0 0
15 17 21 24 22 18 16 14 10 6 5 4 3 3 4 4 2 3 2 1 0 0 0 0 0 0 0 0 0 0 0 0 0 0 0 0 0 0 0 0 0 0 0

GEFSSE_con_prob3kmehi_210.txt.gz
EHI
10 19 30 35 37 39 44 51 56 59 61 59 57 56 55 50 45 39 35 31 24 19 16 15 12 9 6 4 3 2 1 0 0 0 0 0 0 0 1 2 1 1 1
13 21 32 39 41 40 43 50 54 56 57 56 54 54 52 48 44 39 36 31 24 18 15 14 13 11 8 6 4 2 1 0 0 0 0 0 0 0 2 3 3 2 3
21 25 34 43 46 45 45 48 52 52 51 49 47 46 44 41 39 37 34 28 22 17 15 14 13 13 11 8 6 4 2 1 1 1 1 1 1 1 2 4 4 4 4
29 31 36 44 51 51 49 46 46 46 45 42 38 35 33 31 31 31 28 24 21 18 17 15 13 12 11 10 8 5 1 1 2 2 2 2 3 3 3 3 3 3 2
33 35 39 47 54 55 52 46 42 40 38 35 31 28 26 25 25 26 25 23 21 19 17 14 11 9 9 9 7 4 1 1 2 3 3 4 4 4 4 4 4 3 1
33 34 39 48 53 53 52 48 41 37 34 31 29 27 24 24 24 24 23 21 19 17 14 11 9 6 5 6 5 3 1 1 1 2 3 5 5 4 5 5 5 4 2
30 30 36 46 51 49 48 46 41 36 33 33 32 29 25 24 24 23 21 18 15 12 11 10 8 5 4 3 2 1 1 1 1 1 2 4 4 3 4 5 5 4 4
26 27 33 42 47 46 45 44 40 36 33 33 32 29 25 24 22 21 19 16 13 11 9 9 8 6 4 2 1 0 1 1 1 0 0 1 2 2 3 4 5 4 4
24 26 30 37 42 42 42 43 41 36 32 30 29 27 25 22 18 17 16 14 13 10 8 7 7 6 4 2 1 1 1 3 2 1 0 0 1 2 3 4 5 5 4
22 23 27 33 37 38 40 41 41 36 30 27 27 26 23 18 14 13 13 12 11 10 9 7 6 4 3 2 2 2 2 3 3 2 1 1 1 1 2 4 6 5 3
21 23 28 32 35 36 36 37 37 33 28 25 23 21 18 13 11 11 10 10 9 10 10 8 5 4 3 2 1 1 2 3 3 3 2 2 1 1 1 3 5 4 2
27 28 30 32 34 34 33 32 30 27 24 21 18 15 13 10 8 9 8 8 10 11 10 8 6 6 5 4 3 3 3 3 3 3 3 3 2 1 0 1 2 2 1
31 31 30 31 33 34 32 30 26 21 18 16 15 13 11 9 8 8 7 8 9 10 10 9 9 9 9 8 7 6 5 4 3 3 3 3 2 1 0 0 0 1 1
29 29 29 29 32 33 31 28 24 18 15 14 14 13 12 11 9 8 7 7 8 9 9 9 10 9 9 10 8 6 5 4 3 3 2 2 2 1 0 0 1 1 1
25 26 27 27 29 29 27 24 20 16 15 15 15 14 12 10 9 6 5 5 6 8 8 9 9 8 8 7 6 4 3 3 2 2 2 1 1 0 0 0 1 2 1
22 23 25 25 24 23 22 20 16 14 14 15 16 14 11 9 7 5 3 4 5 7 8 8 7 6 5 5 3 1 1 1 1 1 1 0 0 0 0 0 1 2 2
21 22 24 24 21 18 17 17 16 14 14 15 15 14 10 8 7 5 3 3 5 6 7 7 5 3 2 2 1 0 0 0 0 0 0 0 0 0 0 0 0 1 1
18 20 22 21 18 15 14 15 15 15 15 15 15 13 11 9 8 7 4 4 5 6 6 5 3 1 0 0 0 0 0 0 0 0 0 0 0 0 0 0 0 0 1
13 16 19 20 17 15 13 13 14 15 15 14 13 12 11 10 9 8 6 4 5 4 4 3 1 0 0 0 0 0 0 0 0 0 0 0 0 0 0 0 0 0 1
11 13 16 17 15 13 13 13 13 13 12 11 9 9 9 9 10 9 7 6 4 3 3 1 0 0 0 0 0 0 0 0 0 0 0 0 0 0 0 0 0 0 0
12 12 14 14 12 11 12 13 11 9 7 6 5 5 5 6 8 9 8 6 4 3 2 1 0 0 0 0 0 0 0 0 0 0 0 0 0 0 0 0 0 0 0
10 11 12 11 10 10 11 12 10 6 4 3 2 2 3 3 5 7 7 5 3 3 2 1 0 0 0 0 0 0 0 0 0 0 0 0 0 0 0 0 0 0 0
8 8 9 9 10 10 10 10 9 6 3 2 2 1 1 1 2 3 4 3 2 3 2 1 0 0 0 0 0 0 0 0 0 0 0 0 0 0 0 0 0 0 0
7 7 6 7 9 11 10 10 9 6 4 3 2 0 0 0 0 1 1 1 1 1 1 1 0 0 0 0 0 0 0 0 0 0 0 0 0 0 0 0 0 0 0
7 5 5 6 9 10 10 9 8 7 5 3 1 0 0 0 0 0 0 0 0 0 0 0 0 0 0 0 0 0 0 0 0 0 0 0 0 0 0 0 0 0 0
6 4 3 5 7 9 10 9 8 6 5 3 1 0 0 0 0 0 0 0 0 0 0 0 0 0 0 0 0 0 0 0 0 0 0 0 0 0 0 0 0 0 0

GEFSSE_con_prob3kmehi_216.txt.gz
EHI
16 32 44 41 33 27 23 23 27 34 39 40 39 36 31 28 28 28 27 22 18 16 16 13 9 6 4 2 2 2 1 0 0 0 0 0 0 2 4 5 3 5 9
22 34 44 42 36 32 30 30 35 41 43 44 44 41 36 34 33 32 29 24 19 17 15 13 10 7 4 2 2 1 1 1 1 1 0 0 1 2 4 5 5 6 9
27 35 41 41 38 37 37 39 44 49 50 49 48 45 41 40 38 33 28 23 19 17 15 12 10 7 4 3 2 2 3 3 3 2 0 0 2 3 3 3 5 7 7
28 34 39 40 39 37 38 41 46 52 54 51 48 46 42 40 36 30 24 20 18 17 15 13 11 7 4 3 3 3 4 5 5 2 0 0 3 5 4 2 3 4 4
27 33 40 41 38 36 37 39 42 46 49 48 46 42 38 35 31 26 21 17 16 16 15 14 11 7 4 3 3 3 4 6 4 1 0 0 3 7 6 2 2 3 3
24 31 40 42 37 35 36 36 36 38 40 40 38 35 32 29 26 23 19 16 15 15 15 14 11 7 5 3 3 3 4 4 2 0 0 0 4 9 8 3 2 2 3
21 28 38 40 36 32 32 32 32 33 35 35 32 28 25 24 22 21 19 17 15 14 14 13 11 8 6 4 3 3 3 2 1 0 0 0 5 10 9 6 6 6 6
21 27 34 36 32 29 28 29 30 31 32 32 30 25 22 21 21 20 19 16 13 12 12 11 11 10 8 6 4 3 3 2 1 0 0 2 6 10 8 8 11 13 12
20 24 28 29 28 27 27 29 29 30 29 28 27 24 21 19 18 17 15 12 10 9 9 10 11 11 10 8 6 4 3 1 0 0 0 4 10 9 5 6 10 13 14
20 20 22 23 23 23 25 28 29 29 27 25 23 21 19 15 13 12 11 11 10 8 8 9 10 10 10 9 7 5 4 2 0 0 1 7 12 8 4 5 6 7 9
22 20 19 21 21 20 21 26 28 26 24 21 20 20 19 15 12 9 10 13 13 9 8 8 9 8 8 9 9 8 6 3 1 0 4 12 14 8 6 6 5 5 6
24 21 20 21 21 20 21 25 26 24 21 20 19 20 20 17 13 10 10 14 13 10 7 7 7 7 8 10 12 12 8 4 2 2 8 16 15 9 6 6 7 6 6
24 21 21 22 22 22 23 25 25 24 23 21 20 19 19 18 15 12 12 13 12 9 7 6 7 7 9 11 14 12 8 5 4 5 10 17 16 10 5 5 6 6 6
21 21 21 23 23 23 24 25 25 25 25 24 23 21 20 18 15 15 16 15 14 12 10 8 8 8 9 10 10 8 5 5 4 6 12 17 15 9 5 4 4 5 5
17 19 21 22 24 24 24 24 24 24 24 25 25 24 22 19 17 18 21 20 18 16 13 10 9 9 9 9 7 4 4 3 4 7 13 15 13 8 4 2 2 3 3
14 16 18 20 23 25 24 22 21 21 21 22 23 24 23 21 20 23 25 23 21 19 16 12 10 9 9 9 6 4 4 4 5 7 10 10 8 5 3 2 2 2 2
15 16 18 19 22 25 25 23 20 19 18 17 19 22 22 21 22 25 25 24 22 21 20 17 12 10 10 10 8 6 5 5 4 5 6 6 4 3 2 3 5 5 4
20 21 21 22 23 25 25 24 20 18 16 15 15 18 19 20 21 23 24 24 23 23 23 21 17 13 12 12 11 9 6 4 3 3 4 4 3 3 3 5 6 6 5
23 23 22 23 23 23 23 22 19 17 17 17 16 16 18 19 21 22 24 25 24 22 22 21 20 17 14 12 10 8 6 4 3 3 4 3 4 4 5 5 4 3 2
20 20 18 19 22 22 21 20 18 18 19 19 18 17 18 19 20 20 22 24 23 21 21 20 19 18 15 12 8 5 4 4 3 3 3 3 3 4 4 4 4 2 1
19 17 16 16 20 21 20 20 20 19 18 17 17 17 18 17 17 17 19 21 22 22 21 18 16 16 14 12 7 4 3 3 3 3 3 3 3 3 3 3 3 3 3
18 17 15 15 18 19 18 19 19 16 14 13 13 15 14 13 13 14 15 18 20 20 18 15 13 12 10 9 7 4 2 2 2 2 3 3 3 3 3 3 3 3 4
15 14 13 14 16 16 16 17 15 12 10 8 9 10 11 11 11 11 12 14 15 13 11 11 10 8 6 6 5 4 2 2 2 3 3 3 3 3 3 3 3 3 3
11 11 12 13 14 15 16 17 15 13 10 8 7 9 10 9 8 8 9 10 10 7 6 7 7 6 4 3 4 4 4 3 4 4 4 3 3 3 3 3 3 3 3
9 10 12 12 12 14 15 15 15 13 11 9 8 10 10 9 7 6 7 7 5 5 5 6 6 6 5 3 3 4 5 5 5 4 3 3 3 3 3 3 3 3 3
9 10 11 12 12 13 14 13 14 12 10 9 9 10 10 8 7 6 6 5 4 4 6 6 5 5 5 4 4 5 6 6 5 3 2 2 2 2 2 2 2 3 3

GEFSSE_con_prob3kmehi_222.txt.gz
EHI
43 43 43 41 34 25 16 10 5 2 1 3 5 8 10 8 5 2 2 3 6 8 8 6 3 1 0 1 1 2 3 3 5 6 6 6 5 6 8 8 7 8 13
42 41 42 41 35 25 16 10 6 3 3 4 7 10 10 8 5 4 3 4 5 6 7 6 3 1 0 1 2 2 2 3 5 4 3 3 5 8 9 8 6 10 16
39 38 39 42 39 28 18 12 9 7 7 8 9 10 9 7 6 5 5 5 5 5 5 6 4 2 1 1 1 1 1 3 5 3 2 1 6 14 15 9 7 10 13
38 37 40 45 43 34 24 16 12 11 11 10 9 8 8 8 7 6 6 6 5 4 4 6 5 3 2 1 0 0 1 3 4 3 2 2 9 23 24 15 10 10 10
41 43 46 48 46 39 30 21 16 15 14 12 10 10 10 9 7 6 6 6 5 4 4 6 6 4 3 1 0 0 0 1 2 1 1 3 13 27 29 21 15 13 13
42 45 48 49 46 40 34 27 21 18 16 14 12 12 12 10 8 7 6 7 6 5 5 6 6 5 3 2 1 0 1 1 1 0 1 5 17 30 31 23 17 15 14
39 42 45 48 46 39 34 29 24 21 18 15 13 13 13 12 10 9 8 8 7 7 7 7 6 6 4 3 2 2 2 2 1 0 2 8 22 35 34 26 20 18 17
38 40 43 45 42 37 32 28 25 23 21 17 16 16 16 16 14 12 9 8 9 9 8 6 5 5 5 5 4 4 4 4 2 1 2 12 29 41 37 29 23 21 21
38 38 37 36 35 32 29 26 24 23 22 19 19 19 19 19 16 13 10 9 9 8 6 5 5 5 5 5 5 6 6 5 3 2 2 14 36 46 39 28 22 21 23
34 31 28 27 27 24 24 24 24 24 22 20 20 20 20 17 15 13 13 14 13 10 8 8 8 7 6 5 6 7 7 6 3 2 3 16 37 45 37 26 20 19 20
30 25 23 25 23 19 20 24 25 24 23 22 20 20 20 17 14 14 18 23 23 19 16 15 14 12 9 8 9 10 10 6 2 1 4 17 33 37 31 25 21 19 19
29 24 23 25 22 18 22 29 28 26 26 25 23 23 23 19 16 17 23 30 30 25 23 22 20 17 14 13 15 15 13 7 3 2 8 20 29 31 27 25 22 19 17
28 25 24 25 24 23 28 33 30 29 32 29 27 28 27 23 21 22 26 31 31 28 25 25 25 23 20 19 18 17 14 10 6 6 12 22 27 27 27 26 24 20 17
28 26 27 28 29 32 35 34 31 31 32 31 31 32 29 26 26 27 28 31 32 30 29 29 29 28 24 21 17 15 13 12 11 11 15 22 26 26 27 27 25 20 16
30 30 32 33 36 40 41 37 32 30 30 31 33 32 29 28 30 29 30 31 31 30 31 31 30 28 24 20 17 13 11 12 13 12 15 21 26 27 28 27 24 19 16
33 34 37 39 41 44 42 38 33 29 28 30 32 32 30 30 31 31 32 31 29 28 28 29 28 25 22 20 16 12 10 10 11 11 13 18 24 26 26 26 25 21 18
33 35 37 37 39 41 41 36 31 27 25 27 31 32 31 31 32 33 32 29 26 25 25 25 22 19 18 17 15 13 11 11 10 10 12 14 16 18 22 24 25 23 21
32 34 34 32 34 36 38 36 29 23 22 24 29 32 31 30 31 31 30 26 23 22 23 21 17 14 13 13 14 13 13 12 11 12 13 12 10 12 16 20 24 24 22
33 33 31 29 30 31 34 37 32 25 21 21 24 29 30 29 29 28 27 24 21 20 20 17 14 12 10 10 11 12 12 12 11 11 12 10 8 10 12 15 19 20 19
33 32 31 31 31 30 32 35 34 30 25 21 22 26 28 27 26 26 25 23 21 18 17 17 14 11 10 10 9 9 10 9 8 8 8 7 8 9 11 11 13 13 12
30 30 31 33 34 32 30 30 29 29 27 23 23 25 24 23 23 23 23 23 21 18 16 15 12 9 9 9 7 6 6 6 6 6 6 5 6 9 10 11 11 10 8
27 28 30 33 35 33 28 23 22 23 24 23 24 23 20 19 19 19 21 21 19 17 15 13 10 7 5 5 4 4 3 3 4 4 4 5 6 7 8 9 10 9 7
25 24 27 31 33 30 24 19 17 18 20 21 21 20 17 15 14 15 16 17 15 15 14 12 10 7 4 2 2 2 1 2 2 2 3 4 5 5 5 6 6 7 6
24 23 25 29 30 26 21 17 15 16 17 17 16 15 14 12 11 11 12 12 12 12 12 11 9 7 5 1 1 1 1 1 0 1 2 3 3 3 3 3 4 4 5
24 23 24 27 28 24 19 17 17 15 13 13 14 14 13 11 10 9 10 10 10 10 10 8 8 7 4 1 0 0 1 1 0 0 1 1 1 1 2 3 3 3 4
24 22 22 25 27 24 19 17 18 15 11 11 14 14 13 12 9 8 9 10 10 10 9 8 7 6 4 1 0 1 1 1 0 0 0 0 0 0 1 3 3 3 3

GEFSSE_con_prob3kmehi_228.txt.gz
EHI
5 14 29 40 45 44 38 31 28 23 18 18 20 21 23 25 23 21 18 15 12 9 7 6 5 6 6 6 6 7 6 6 4 3 2 1 1 2 5 5 4 6 9
8 15 29 40 45 45 39 33 29 25 20 19 18 20 22 24 22 18 13 11 10 8 6 5 5 6 5 5 7 8 9 9 7 4 3 3 2 3 6 6 6 9 13
12 15 26 38 45 46 42 37 31 27 23 19 18 19 21 21 20 16 11 7 6 6 5 4 4 4 4 4 6 8 9 9 8 5 5 5 5 5 8 10 12 16 20
14 13 22 36 43 45 43 38 33 29 25 21 19 19 19 19 18 16 12 7 5 4 3 2 2 3 3 3 3 4 5 5 4 3 4 5 5 5 8 12 17 20 22
14 14 23 36 41 42 40 36 33 30 27 24 20 19 18 17 15 14 11 8 5 3 2 1 1 2 3 3 2 1 1 1 1 1 2 2 2 2 6 12 17 20 20
11 12 22 33 38 38 36 33 31 28 26 24 21 19 19 18 15 12 10 8 5 3 1 1 2 3 3 3 2 1 1 0 0 0 0 0 0 1 6 12 16 19 19
9 9 17 30 35 34 32 32 31 27 24 22 21 20 19 18 17 14 10 7 5 4 2 1 2 3 3 3 3 3 2 1 0 1 1 1 1 4 9 13 16 16 16
13 13 19 28 31 29 28 30 30 27 24 23 23 22 20 19 19 18 14 9 7 6 5 3 2 2 2 3 3 3 2 1 0 1 2 1 1 5 12 16 18 18 16
18 20 25 26 24 21 21 24 25 26 24 24 24 24 23 21 20 20 18 15 12 10 8 6 4 3 3 4 4 2 1 0 0 1 2 1 2 5 12 19 24 23 20
17 20 24 24 19 17 18 18 20 24 26 25 25 24 24 21 17 17 19 18 16 14 12 10 8 6 6 6 6 5 3 3 3 2 3 2 2 4 11 21 26 26 24
12 15 19 21 19 18 17 16 17 21 23 23 22 22 21 18 14 14 16 17 16 16 16 14 12 10 9 8 7 7 8 9 7 5 5 4 3 4 11 21 26 25 24
12 13 14 16 17 17 15 15 16 17 18 17 16 16 16 15 14 14 14 15 15 15 16 16 16 14 13 11 10 11 13 13 11 8 7 7 5 7 14 23 27 26 25
13 12 10 11 12 13 14 14 14 15 15 14 13 12 12 13 14 14 14 13 13 13 14 15 16 17 16 14 14 14 14 13 12 9 8 9 9 11 16 24 28 28 26
16 14 10 9 10 11 13 15 15 16 16 14 12 11 11 12 13 13 13 11 10 10 11 13 14 16 15 14 14 14 12 11 10 7 7 9 11 14 17 23 27 27 26
19 17 13 11 10 11 13 14 15 15 14 13 12 11 11 12 12 12 12 11 11 11 11 11 12 13 13 12 11 10 10 9 7 5 5 7 11 15 19 21 23 23 23
19 17 14 12 11 12 13 12 10 9 11 12 12 11 11 12 12 11 10 11 13 14 13 12 12 12 12 10 8 7 7 7 6 4 4 5 8 14 18 20 20 19 19
16 14 12 10 9 10 11 11 8 7 8 10 10 11 12 12 12 11 10 11 12 14 14 13 12 11 10 8 6 4 4 5 5 4 4 4 6 8 13 16 16 14 15
11 11 11 10 8 7 9 10 8 7 8 9 8 9 10 11 11 11 11 11 11 12 12 11 10 9 7 6 3 2 2 3 4 4 4 4 4 4 7 9 9 9 9
7 8 9 10 9 8 9 9 7 6 7 8 7 8 8 10 10 11 11 11 10 9 8 8 8 6 4 3 1 0 1 1 2 2 2 3 3 2 3 3 4 4 4
6 7 8 9 11 11 11 10 7 4 4 6 7 7 7 8 9 9 9 9 10 9 7 6 6 4 2 1 0 0 0 0 0 0 0 1 1 1 1 1 1 2 3
7 8 8 8 10 12 11 10 7 4 3 4 6 6 6 7 7 7 7 8 9 10 7 5 4 3 1 0 0 0 0 0 0 0 0 0 0 0 0 0 0 2 3
10 10 10 9 10 11 11 9 6 4 4 5 5 5 5 5 5 6 6 7 8 9 7 4 3 2 1 0 0 0 0 0 0 0 0 0 0 0 0 0 0 1 2
13 12 12 10 9 9 10 8 6 6 6 6 5 5 5 4 5 6 7 7 8 8 6 3 2 1 0 0 0 0 0 0 0 0 0 0 0 0 0 0 0 0 1
13 12 11 9 8 8 8 8 7 7 6 5 5 5 4 3 3 5 7 8 9 8 4 1 1 0 0 0 0 0 0 0 0 0 0 0 0 0 0 0 0 0 0
9 9 8 6 6 6 6 6 8 8 7 5 5 5 4 2 3 5 7 7 8 7 3 1 0 0 0 0 0 0 0 0 0 0 0 0 0 0 0 0 0 0 0
5 6 5 4 4 4 4 5 7 8 7 6 6 5 3 2 3 5 6 7 7 6 4 1 0 0 0 0 0 0 0 0 0 0 0 0 0 0 0 0 0 0 0

GEFSSE_con_prob3kmehi_234.txt.gz
EHI
3 12 22 24 27 33 40 45 50 53 56 58 58 57 53 48 44 40 35 29 23 19 17 12 8 5 4 3 3 2 1 0 1 1 1 1 3 7 9 7 4 4 4
5 13 21 24 27 35 41 46 50 52 54 56 57 56 53 49 45 40 33 28 23 20 18 15 10 5 3 2 2 2 1 0 0 1 2 1 2 4 6 7 5 4 5
11 15 20 25 28 33 39 44 47 48 49 51 54 54 50 46 42 36 30 25 22 20 19 16 11 6 3 3 2 1 0 1 1 1 2 2 2 2 4 6 7 7 7
17 17 21 26 29 31 35 41 44 43 43 46 50 50 45 39 35 32 28 23 21 21 20 16 12 8 6 5 4 2 1 2 1 1 3 3 2 2 4 5 6 8 9
19 17 21 27 30 31 33 38 40 39 39 40 42 42 38 33 31 28 25 21 19 19 18 15 12 10 8 6 5 4 3 3 2 2 5 5 3 3 4 5 6 8 9
19 18 23 31 33 31 31 34 36 36 35 34 35 34 32 28 26 24 20 17 16 15 14 13 12 11 10 8 6 5 4 4 3 4 5 5 4 4 5 6 7 10 12
20 21 27 34 35 31 28 29 32 33 33 32 30 28 26 24 22 20 17 16 14 13 11 9 10 10 10 9 6 4 4 3 4 4 4 4 3 4 7 10 11 12 13
23 23 27 31 32 29 26 26 29 32 32 31 29 26 22 20 20 19 17 14 12 11 9 7 7 7 7 6 4 3 2 2 3 4 4 4 4 5 8 12 14 14 12
23 22 22 24 25 24 23 24 28 31 32 30 28 25 21 18 18 18 16 13 10 8 7 6 5 5 5 3 2 2 1 1 3 4 4 4 5 5 5 9 12 13 12
19 18 17 18 20 18 18 20 24 27 28 27 25 22 18 15 15 16 16 13 10 9 8 7 6 5 5 3 2 2 1 1 3 4 4 4 4 3 2 4 7 9 11
13 12 12 14 15 14 14 16 19 20 20 20 18 16 14 13 13 14 14 13 12 12 12 10 8 7 6 5 4 3 3 3 4 4 4 4 2 1 1 2 3 5 7
9 7 7 8 10 10 12 13 13 13 13 13 11 10 10 10 11 12 12 12 12 13 13 10 9 9 8 7 6 6 7 7 7 6 5 4 3 2 2 3 4 4 4
7 5 3 3 6 8 11 11 11 11 12 11 9 8 8 8 10 11 10 10 11 11 11 10 10 10 9 8 8 9 9 10 9 7 6 5 5 4 3 4 4 4 4
6 4 2 2 4 7 9 10 10 11 12 11 8 7 7 8 9 10 9 9 10 11 11 10 11 10 8 7 7 8 8 8 8 7 6 5 5 4 2 2 4 5 6
5 3 3 3 4 6 7 6 7 8 9 8 6 6 6 6 6 6 6 7 9 11 11 11 10 10 9 7 7 7 7 7 7 6 6 4 4 2 1 2 3 5 5
6 5 4 4 3 4 4 3 3 4 5 5 4 4 4 4 4 3 3 3 5 7 9 9 9 9 9 8 6 7 8 8 7 6 6 4 2 1 0 1 2 4 5
8 8 7 5 4 3 2 1 1 1 2 1 2 3 3 3 4 3 2 1 2 4 6 6 7 7 7 6 5 5 6 7 7 6 6 4 3 1 0 0 1 3 4
8 9 9 7 4 2 1 0 0 0 0 0 1 2 3 4 5 4 2 1 2 3 4 4 5 6 6 5 3 3 4 5 6 6 5 5 4 2 1 0 1 2 3
6 8 9 7 3 1 0 0 0 0 0 0 1 2 3 4 5 5 3 3 3 3 3 3 3 3 3 3 2 2 3 4 4 4 4 4 3 2 1 0 1 2 2
5 5 6 5 2 0 1 1 0 0 0 1 1 1 3 4 4 4 3 3 3 3 3 3 2 1 2 2 2 2 3 3 3 3 3 2 2 1 0 0 0 1 1
5 4 4 3 1 0 1 2 1 0 0 0 0 1 3 4 4 3 2 2 2 2 2 2 2 1 1 2 3 3 2 2 3 2 1 1 1 0 0 0 0 0 0
5 4 3 2 1 0 1 2 2 1 0 0 0 1 2 3 3 3 2 1 1 1 0 1 1 1 1 2 3 2 1 1 1 1 1 0 0 0 0 0 0 0 0
5 4 3 2 1 0 1 3 3 2 2 1 1 1 1 2 2 2 2 1 1 1 1 0 0 0 1 2 2 1 0 0 0 0 0 0 0 0 0 0 0 0 0
5 4 4 2 1 1 2 3 3 3 3 3 2 1 0 1 1 1 1 2 2 2 2 1 0 0 0 1 2 1 0 0 0 0 0 0 0 0 0 0 0 0 0
4 4 3 2 2 2 3 3 3 3 4 3 2 1 0 0 0 0 1 1 1 1 1 1 0 0 0 1 2 1 0 0 0 0 0 0 0 0 0 0 0 0 0
3 3 3 2 2 3 3 3 3 3 3 3 2 1 0 0 0 0 0 0 0 0 1 0 0 0 1 2 2 1 0 0 0 0 0 0 0 0 0 0 0 0 0